CSS (TIANHE-1), 48274

Orbit data source: Space-Track

The Chinese Space Station (CSS), known as Tiangong or "Heavenly Palace," is China's independently developed space station that represents a significant step in China’s space exploration capabilities. Launched in phases starting with the Tianhe module in 2021, the station operates in low Earth orbit (LEO). It aims to support a variety of scientific experiments in fields such as space medicine, astronomy, and technology development.

Loading next visibility...
Identifier
48274, 2021-035A
Orbit
LEO
Country
Flag of CNCN / PRC
Related business
Manufacturer
CAST
Mission
Operational Civil Spaceship
Bus & Motor
TIANHE, Unknown motor
Mass
22,500 kg wet, ~20,838 kg dry
Launch date (UTC)
2021-04-29 (4 years ago)
Launch vehicle
CHANG ZHENG 5B
Launch site
Wenchang Satellite Launch Center (WSC)
Object type
Payload
Rocket body
Debris
Shape & HBR
Irr, 27.5 m
Radar Cross Section
2905.500 m², Large (>1 m²)

Expand to show TLE details & history
Last TLE update: 8 hours ago

TLE from 8 hours ago
0 CSS (TIANHE-1)
1 48274U 21035A   25298.43177446  .00038503  00000-0  45249-3 0  9994
2 48274  41.4668 310.1762 0011170 280.4087  79.5493 15.60623758256480
Epoch: 2025-10-25T10:21Z
TLE epoch observation values (Epoch: 2025-10-25T10:21:45.313Z)
Latitude
0.00001°
Longitude
120.67499°
Altitude
384.091 km
Speed
7.682 km/s
True Right ascension
20h 40m 42s
True Declination
0° 00' 00"
Sunlit
Object was in daylight at epoch
Visualization orbit readout
Latitude
Unknown
Longitude
Unknown
Altitude
Unknown
Speed
Unknown
Apparent Right ascension
Unknown
Apparent Declination
Unknown
Sunlit
N/A
Visualization observer readout
Local Sidereal Time
14:02:59
Azimuth
Unknown
Elevation
Unknown
Doppler factor
Unknown
Orbital elements
Apogee altitude
395.645 km
Perigee altitude
380.53 km
Semi-major axis
6,766.224 km
Eccentricity
0.00112
Inclination
41.4668°
RAAN
310.1762°
Arg. of periapsis
280.4087°
True anomaly
79.67521°
Mean anomaly
79.5493°
Eccentric anomaly
79.61225°
Mean motion
3.89963 °/min
Orbital period
92.32 mins
BSTAR
0.00045249
Loading maneuver chart data...
Computing Atmospheric mass density...
Loading historical data...
Loading historical data...
Loading historical data...
Loading historical data...
Loading historical data...
Loading historical data...
Loading historical data...
Other satellites on launch #35 in the year 2021 (2021-04-29 UTC)

Documentation

Showing up to 5 results
|